Time,TemperatureF,DewpointF,PressureIn,WindDirection,WindDirectionDegrees,WindSpeedMPH,WindSpeedGustMPH,Humidity,HourlyPrecipIn,Conditions,Clouds,dailyrainin,SolarRadiationWatts/m^2,SoftwareType,DateUTC
2013-07-03 00:04:00,55.0,51.2,30.07,SE,128,0.0,0.0,87,0.00,,,0.00,0,Wunderground v.1.15,2013-07-03 05:04:00,
2013-07-03 00:09:00,55.0,51.2,30.07,SE,128,0.0,0.0,87,0.00,,,0.00,0,Wunderground v.1.15,2013-07-03 05:09:00,
2013-07-03 00:14:00,55.0,50.9,30.07,SE,128,0.0,0.0,86,0.00,,,0.00,0,Wunderground v.1.15,2013-07-03 05:14:00,
2013-07-03 00:20:00,54.9,50.8,30.07,SE,128,0.0,0.0,86,0.00,,,0.00,0,Wunderground v.1.15,2013-07-03 05:20:00,
2013-07-03 00:24:00,54.8,51.0,30.07,SE,128,0.0,0.0,87,0.00,,,0.00,0,Wunderground v.1.15,2013-07-03 05:24:00,
2013-07-03 00:29:00,54.7,50.9,30.07,SE,128,0.0,0.0,87,0.00,,,0.00,0,Wunderground v.1.15,2013-07-03 05:29:00,
2013-07-03 00:36:00,54.6,50.8,30.07,SE,128,0.0,0.0,87,0.00,,,0.00,0,Wunderground v.1.15,2013-07-03 05:36:00,
2013-07-03 00:41:00,54.5,50.4,30.07,SE,128,0.0,0.0,86,0.00,,,0.00,0,Wunderground v.1.15,2013-07-03 05:41:00,
2013-07-03 00:46:00,54.4,50.6,30.06,SE,128,0.0,0.0,87,0.00,,,0.00,0,Wunderground v.1.15,2013-07-03 05:46:00,
2013-07-03 00:52:00,54.3,50.5,30.06,SE,128,0.0,0.0,87,0.00,,,0.00,0,Wunderground v.1.15,2013-07-03 05:52:00,
2013-07-03 00:54:00,54.3,50.5,30.06,SE,128,0.0,0.0,87,0.00,,,0.00,0,Wunderground v.1.15,2013-07-03 05:54:00,
2013-07-03 00:58:00,54.2,50.4,30.07,SE,128,0.0,0.0,87,0.00,,,0.00,0,Wunderground v.1.15,2013-07-03 05:58:00,
2013-07-03 00:59:00,54.1,50.3,30.07,SE,128,0.0,0.0,87,0.00,,,0.00,0,Wunderground v.1.15,2013-07-03 05:59:00,
2013-07-03 01:03:00,54.0,50.5,30.07,SE,128,0.0,0.0,88,0.00,,,0.00,0,Wunderground v.1.15,2013-07-03 06:03:00,
2013-07-03 01:08:00,53.9,50.4,30.07,SE,128,0.0,0.0,88,0.00,,,0.00,0,Wunderground v.1.15,2013-07-03 06:08:00,
2013-07-03 01:13:00,53.7,50.2,30.07,SE,128,0.0,0.0,88,0.00,,,0.00,0,Wunderground v.1.15,2013-07-03 06:13:00,
2013-07-03 01:14:00,53.7,50.2,30.07,SE,128,0.0,0.0,88,0.00,,,0.00,0,Wunderground v.1.15,2013-07-03 06:14:00,
2013-07-03 01:20:00,53.6,50.1,30.07,SE,128,0.0,0.0,88,0.00,,,0.00,0,Wunderground v.1.15,2013-07-03 06:20:00,
2013-07-03 01:21:00,53.6,50.1,30.07,SE,128,0.0,0.0,88,0.00,,,0.00,0,Wunderground v.1.15,2013-07-03 06:21:00,
2013-07-03 01:25:00,53.6,50.4,30.06,SE,128,0.0,0.0,89,0.00,,,0.00,0,Wunderground v.1.15,2013-07-03 06:25:00,
2013-07-03 01:26:00,53.6,50.4,30.06,SE,128,0.0,0.0,89,0.00,,,0.00,0,Wunderground v.1.15,2013-07-03 06:26:00,
2013-07-03 01:33:00,53.5,50.3,30.06,SE,128,0.0,0.0,89,0.00,,,0.00,0,Wunderground v.1.15,2013-07-03 06:33:00,
2013-07-03 01:35:00,53.5,50.3,30.06,SE,128,0.0,0.0,89,0.00,,,0.00,0,Wunderground v.1.15,2013-07-03 06:35:00,
2013-07-03 01:40:00,53.5,50.3,30.06,SE,128,0.0,0.0,89,0.00,,,0.00,0,Wunderground v.1.15,2013-07-03 06:40:00,
2013-07-03 01:46:00,53.4,50.5,30.06,SE,128,0.0,0.0,90,0.00,,,0.00,0,Wunderground v.1.15,2013-07-03 06:46:00,
2013-07-03 01:51:00,53.5,50.6,30.06,SE,128,0.0,0.0,90,0.00,,,0.00,0,Wunderground v.1.15,2013-07-03 06:51:00,
2013-07-03 01:57:00,53.6,50.4,30.06,SE,128,0.0,0.0,89,0.00,,,0.00,0,Wunderground v.1.15,2013-07-03 06:57:00,
2013-07-03 01:58:00,53.6,50.4,30.06,SE,128,0.0,0.0,89,0.00,,,0.00,0,Wunderground v.1.15,2013-07-03 06:58:00,
2013-07-03 02:03:00,53.7,50.5,30.06,SE,128,0.0,0.0,89,0.00,,,0.00,0,Wunderground v.1.15,2013-07-03 07:03:00,
2013-07-03 02:08:00,53.7,50.5,30.06,SE,128,0.0,0.0,89,0.00,,,0.00,0,Wunderground v.1.15,2013-07-03 07:08:00,
2013-07-03 02:14:00,53.7,50.5,30.06,SE,128,0.0,0.0,89,0.00,,,0.00,0,Wunderground v.1.15,2013-07-03 07:14:00,
2013-07-03 02:17:00,53.7,50.5,30.05,SE,128,0.0,0.0,89,0.00,,,0.00,0,Wunderground v.1.15,2013-07-03 07:17:00,
2013-07-03 02:22:00,53.7,50.5,30.05,SE,128,2.0,2.0,89,0.00,,,0.00,0,Wunderground v.1.15,2013-07-03 07:22:00,
2013-07-03 02:27:00,53.8,50.3,30.05,SE,128,0.0,2.0,88,0.00,,,0.00,0,Wunderground v.1.15,2013-07-03 07:27:00,
2013-07-03 02:32:00,53.9,50.4,30.05,SE,128,1.0,1.0,88,0.00,,,0.00,0,Wunderground v.1.15,2013-07-03 07:32:00,
2013-07-03 02:37:00,54.1,50.3,30.05,SE,128,0.0,1.0,87,0.00,,,0.00,0,Wunderground v.1.15,2013-07-03 07:37:00,
2013-07-03 02:38:00,54.1,50.3,30.05,SE,128,0.0,1.0,87,0.00,,,0.00,0,Wunderground v.1.15,2013-07-03 07:38:00,
2013-07-03 02:44:00,54.3,50.2,30.05,SE,128,0.0,0.0,86,0.00,,,0.00,0,Wunderground v.1.15,2013-07-03 07:44:00,
2013-07-03 02:49:00,54.3,50.2,30.05,SE,128,0.0,0.0,86,0.00,,,0.00,0,Wunderground v.1.15,2013-07-03 07:49:00,
2013-07-03 02:50:00,54.3,50.2,30.04,SE,128,0.0,0.0,86,0.00,,,0.00,0,Wunderground v.1.15,2013-07-03 07:50:00,
2013-07-03 02:55:00,54.3,50.5,30.05,SE,128,0.0,0.0,87,0.00,,,0.00,0,Wunderground v.1.15,2013-07-03 07:55:00,
2013-07-03 03:00:00,54.2,50.1,30.05,SE,128,0.0,0.0,86,0.00,,,0.00,0,Wunderground v.1.15,2013-07-03 08:00:00,
2013-07-03 03:01:00,54.2,50.1,30.05,SE,128,0.0,0.0,86,0.00,,,0.00,0,Wunderground v.1.15,2013-07-03 08:01:00,
2013-07-03 03:06:00,54.2,50.4,30.04,SE,128,0.0,2.0,87,0.00,,,0.00,0,Wunderground v.1.15,2013-07-03 08:06:00,
2013-07-03 03:09:00,54.3,50.5,30.04,SE,128,0.0,2.0,87,0.00,,,0.00,0,Wunderground v.1.15,2013-07-03 08:09:00,
2013-07-03 03:14:00,54.3,50.5,30.04,SE,128,0.0,0.0,87,0.00,,,0.00,0,Wunderground v.1.15,2013-07-03 08:14:00,
2013-07-03 03:19:00,54.3,50.8,30.04,SE,128,0.0,0.0,88,0.00,,,0.00,0,Wunderground v.1.15,2013-07-03 08:19:00,
2013-07-03 03:25:00,54.2,50.7,30.05,SE,128,0.0,0.0,88,0.00,,,0.00,0,Wunderground v.1.15,2013-07-03 08:25:00,
2013-07-03 03:30:00,54.0,50.2,30.04,SE,128,0.0,0.0,87,0.00,,,0.00,0,Wunderground v.1.15,2013-07-03 08:30:00,
2013-07-03 03:35:00,53.9,50.1,30.04,SE,128,0.0,0.0,87,0.00,,,0.00,0,Wunderground v.1.15,2013-07-03 08:35:00,
2013-07-03 03:39:00,53.9,50.1,30.04,SE,128,0.0,0.0,87,0.00,,,0.00,0,Wunderground v.1.15,2013-07-03 08:39:00,
2013-07-03 03:44:00,53.9,50.4,30.04,SE,128,0.0,0.0,88,0.00,,,0.00,0,Wunderground v.1.15,2013-07-03 08:44:00,
2013-07-03 03:47:00,53.9,50.4,30.04,SE,128,0.0,0.0,88,0.00,,,0.00,0,Wunderground v.1.15,2013-07-03 08:47:00,
2013-07-03 03:52:00,53.9,50.7,30.04,SE,128,0.0,0.0,89,0.00,,,0.00,0,Wunderground v.1.15,2013-07-03 08:52:00,
2013-07-03 03:55:00,54.0,50.8,30.04,SE,128,0.0,0.0,89,0.00,,,0.00,0,Wunderground v.1.15,2013-07-03 08:55:00,
2013-07-03 04:00:00,54.0,50.5,30.04,SE,128,0.0,0.0,88,0.00,,,0.00,0,Wunderground v.1.15,2013-07-03 09:00:00,
2013-07-03 04:06:00,54.2,50.7,30.04,SE,128,0.0,0.0,88,0.00,,,0.00,0,Wunderground v.1.15,2013-07-03 09:06:00,
2013-07-03 04:12:00,54.4,50.6,30.04,SE,128,0.0,1.0,87,0.00,,,0.00,0,Wunderground v.1.15,2013-07-03 09:12:00,
2013-07-03 04:17:00,54.6,50.8,30.04,SE,128,0.0,1.0,87,0.00,,,0.00,0,Wunderground v.1.15,2013-07-03 09:17:00,
2013-07-03 04:22:00,54.6,50.5,30.05,SE,128,0.0,0.0,86,0.00,,,0.00,0,Wunderground v.1.15,2013-07-03 09:22:00,
2013-07-03 04:27:00,54.7,50.3,30.05,SE,128,0.0,0.0,85,0.00,,,0.00,0,Wunderground v.1.15,2013-07-03 09:27:00,
2013-07-03 04:32:00,54.8,50.4,30.05,SE,128,0.0,0.0,85,0.00,,,0.00,0,Wunderground v.1.15,2013-07-03 09:32:00,
2013-07-03 04:37:00,54.8,50.1,30.05,SE,128,0.0,0.0,84,0.00,,,0.00,0,Wunderground v.1.15,2013-07-03 09:37:00,
2013-07-03 04:41:00,55.0,50.3,30.05,SE,128,0.0,0.0,84,0.00,,,0.00,0,Wunderground v.1.15,2013-07-03 09:41:00,
2013-07-03 04:46:00,55.2,50.4,30.04,SE,128,0.0,0.0,84,0.00,,,0.00,0,Wunderground v.1.15,2013-07-03 09:46:00,
2013-07-03 04:49:00,55.3,50.9,30.04,SE,128,0.0,0.0,85,0.00,,,0.00,0,Wunderground v.1.15,2013-07-03 09:49:00,
2013-07-03 04:50:00,55.3,50.9,30.05,SE,128,0.0,0.0,85,0.00,,,0.00,0,Wunderground v.1.15,2013-07-03 09:50:00,
2013-07-03 04:55:00,55.5,50.7,30.05,SE,128,0.0,0.0,84,0.00,,,0.00,0,Wunderground v.1.15,2013-07-03 09:55:00,
2013-07-03 05:00:00,55.8,51.4,30.05,SE,128,0.0,0.0,85,0.00,,,0.00,0,Wunderground v.1.15,2013-07-03 10:00:00,
2013-07-03 05:06:00,55.9,51.5,30.05,SE,128,0.0,0.0,85,0.00,,,0.00,0,Wunderground v.1.15,2013-07-03 10:06:00,
2013-07-03 05:07:00,56.0,51.6,30.05,SE,128,0.0,0.0,85,0.00,,,0.00,0,Wunderground v.1.15,2013-07-03 10:07:00,
2013-07-03 05:12:00,56.1,51.7,30.05,SE,128,0.0,0.0,85,0.00,,,0.00,0,Wunderground v.1.15,2013-07-03 10:12:00,
2013-07-03 05:18:00,56.3,52.2,30.05,SE,128,0.0,0.0,86,0.00,,,0.00,0,Wunderground v.1.15,2013-07-03 10:18:00,
2013-07-03 05:23:00,56.4,52.3,30.06,SE,128,0.0,0.0,86,0.00,,,0.00,0,Wunderground v.1.15,2013-07-03 10:23:00,
2013-07-03 05:28:00,56.5,52.4,30.06,SE,128,0.0,0.0,86,0.00,,,0.00,0,Wunderground v.1.15,2013-07-03 10:28:00,
2013-07-03 05:31:00,56.5,52.4,30.06,SE,128,0.0,0.0,86,0.00,,,0.00,0,Wunderground v.1.15,2013-07-03 10:31:00,
2013-07-03 05:36:00,56.5,52.4,30.06,SE,128,0.0,0.0,86,0.00,,,0.00,0,Wunderground v.1.15,2013-07-03 10:36:00,
2013-07-03 05:41:00,56.6,52.1,30.06,SE,128,4.0,4.0,85,0.00,,,0.00,5,Wunderground v.1.15,2013-07-03 10:41:00,
2013-07-03 05:46:00,56.8,52.0,30.06,SE,128,0.0,4.0,84,0.00,,,0.00,7,Wunderground v.1.15,2013-07-03 10:46:00,
2013-07-03 05:49:00,56.9,52.1,30.06,SE,128,0.0,4.0,84,0.00,,,0.00,7,Wunderground v.1.15,2013-07-03 10:49:00,
2013-07-03 05:54:00,57.0,52.5,30.06,SE,128,0.0,2.0,85,0.00,,,0.00,7,Wunderground v.1.15,2013-07-03 10:54:00,
2013-07-03 05:55:00,57.0,52.5,30.06,SE,128,0.0,2.0,85,0.00,,,0.00,11,Wunderground v.1.15,2013-07-03 10:55:00,
2013-07-03 05:57:00,57.1,52.6,30.06,SE,128,0.0,2.0,85,0.00,,,0.00,11,Wunderground v.1.15,2013-07-03 10:57:00,
2013-07-03 06:03:00,57.2,52.4,30.06,SE,128,0.0,0.0,84,0.00,,,0.00,11,Wunderground v.1.15,2013-07-03 11:03:00,
2013-07-03 06:08:00,57.3,52.5,30.06,SE,128,0.0,2.0,84,0.00,,,0.00,11,Wunderground v.1.15,2013-07-03 11:08:00,
2013-07-03 06:10:00,57.4,52.6,30.06,SE,128,0.0,0.0,84,0.00,,,0.00,12,Wunderground v.1.15,2013-07-03 11:10:00,
2013-07-03 06:15:00,57.5,52.7,30.06,SE,128,0.0,0.0,84,0.00,,,0.00,16,Wunderground v.1.15,2013-07-03 11:15:00,
2013-07-03 06:20:00,57.6,52.8,30.06,SE,128,0.0,0.0,84,0.00,,,0.00,26,Wunderground v.1.15,2013-07-03 11:20:00,
2013-07-03 06:21:00,57.6,52.8,30.06,SE,128,0.0,0.0,84,0.00,,,0.00,30,Wunderground v.1.15,2013-07-03 11:21:00,
2013-07-03 06:23:00,57.7,52.9,30.06,SE,128,1.0,1.0,84,0.00,,,0.00,35,Wunderground v.1.15,2013-07-03 11:23:00,
2013-07-03 06:25:00,57.7,52.9,30.06,SE,128,2.0,2.0,84,0.00,,,0.00,33,Wunderground v.1.15,2013-07-03 11:25:00,
2013-07-03 06:31:00,57.9,53.1,30.06,SE,128,0.0,0.0,84,0.00,,,0.00,28,Wunderground v.1.15,2013-07-03 11:31:00,
2013-07-03 06:36:00,58.0,53.2,30.06,SE,128,0.0,1.0,84,0.00,,,0.00,32,Wunderground v.1.15,2013-07-03 11:36:00,
2013-07-03 06:41:00,58.2,53.4,30.06,ESE,121,0.0,3.0,84,0.00,,,0.00,53,Wunderground v.1.15,2013-07-03 11:41:00,
2013-07-03 06:45:00,58.4,53.6,30.06,ESE,121,0.0,3.0,84,0.00,,,0.00,111,Wunderground v.1.15,2013-07-03 11:45:00,
2013-07-03 06:50:00,58.6,53.8,30.06,WNW,289,0.0,1.0,84,0.00,,,0.00,137,Wunderground v.1.15,2013-07-03 11:50:00,
2013-07-03 06:55:00,58.9,53.4,30.06,WNW,289,0.0,3.0,82,0.00,,,0.00,90,Wunderground v.1.15,2013-07-03 11:55:00,
2013-07-03 06:59:00,59.2,53.0,30.06,WNW,294,2.0,4.0,80,0.00,,,0.00,58,Wunderground v.1.15,2013-07-03 11:59:00,
2013-07-03 07:02:00,59.3,53.1,30.06,WNW,294,0.0,3.0,80,0.00,,,0.00,63,Wunderground v.1.15,2013-07-03 12:02:00,
2013-07-03 07:07:00,59.5,53.7,30.06,WNW,302,1.0,3.0,81,0.00,,,0.00,67,Wunderground v.1.15,2013-07-03 12:07:00,
2013-07-03 07:12:00,59.6,53.4,30.06,WNW,302,1.0,1.0,80,0.00,,,0.00,76,Wunderground v.1.15,2013-07-03 12:12:00,
2013-07-03 07:16:00,59.7,53.9,30.06,WNW,302,0.0,2.0,81,0.00,,,0.00,86,Wunderground v.1.15,2013-07-03 12:16:00,
2013-07-03 07:20:00,59.8,53.6,30.06,WNW,302,3.0,3.0,80,0.00,,,0.00,93,Wunderground v.1.15,2013-07-03 12:20:00,
2013-07-03 07:26:00,59.9,53.7,30.06,WNW,302,0.0,4.0,80,0.00,,,0.00,135,Wunderground v.1.15,2013-07-03 12:26:00,
2013-07-03 07:31:00,60.1,53.9,30.06,WNW,302,0.0,1.0,80,0.00,,,0.00,120,Wunderground v.1.15,2013-07-03 12:31:00,
2013-07-03 07:36:00,60.3,54.1,30.06,WNW,302,2.0,2.0,80,0.00,,,0.00,120,Wunderground v.1.15,2013-07-03 12:36:00,
2013-07-03 07:41:00,60.5,54.3,30.07,NW,307,1.0,2.0,80,0.00,,,0.00,116,Wunderground v.1.15,2013-07-03 12:41:00,
2013-07-03 07:46:00,60.7,54.8,30.07,NW,307,1.0,2.0,81,0.00,,,0.00,148,Wunderground v.1.15,2013-07-03 12:46:00,
2013-07-03 07:51:00,60.8,54.6,30.07,NW,323,3.0,3.0,80,0.00,,,0.00,162,Wunderground v.1.15,2013-07-03 12:51:00,
2013-07-03 07:56:00,60.9,54.7,30.06,NNW,344,1.0,4.0,80,0.00,,,0.00,160,Wunderground v.1.15,2013-07-03 12:56:00,
2013-07-03 08:01:00,61.0,54.8,30.07,NNW,344,2.0,3.0,80,0.00,,,0.00,174,Wunderground v.1.15,2013-07-03 13:01:00,
2013-07-03 08:07:00,61.3,55.4,30.07,NNW,344,1.0,4.0,81,0.00,,,0.00,158,Wunderground v.1.15,2013-07-03 13:07:00,
2013-07-03 08:12:00,61.4,55.5,30.07,North,355,0.0,3.0,81,0.00,,,0.00,167,Wunderground v.1.15,2013-07-03 13:12:00,
2013-07-03 08:17:00,61.7,55.8,30.07,North,355,0.0,3.0,81,0.00,,,0.00,172,Wunderground v.1.15,2013-07-03 13:17:00,
2013-07-03 08:22:00,61.8,55.6,30.07,North,355,2.0,3.0,80,0.00,,,0.00,128,Wunderground v.1.15,2013-07-03 13:22:00,
2013-07-03 08:25:00,61.8,55.6,30.07,North,355,5.0,5.0,80,0.00,,,0.00,167,Wunderground v.1.15,2013-07-03 13:25:00,
2013-07-03 08:26:00,61.8,55.6,30.07,North,5,2.0,5.0,80,0.00,,,0.00,171,Wunderground v.1.15,2013-07-03 13:26:00,
2013-07-03 08:31:00,62.0,56.1,30.07,North,5,0.0,2.0,81,0.00,,,0.00,171,Wunderground v.1.15,2013-07-03 13:31:00,
2013-07-03 08:36:00,62.1,56.2,30.08,North,5,0.0,3.0,81,0.00,,,0.00,199,Wunderground v.1.15,2013-07-03 13:36:00,
2013-07-03 08:37:00,62.1,56.2,30.08,North,5,3.0,4.0,81,0.00,,,0.00,199,Wunderground v.1.15,2013-07-03 13:37:00,
2013-07-03 08:43:00,62.2,56.3,30.08,NNE,13,2.0,6.0,81,0.00,,,0.00,190,Wunderground v.1.15,2013-07-03 13:43:00,
2013-07-03 08:48:00,62.3,56.0,30.08,NNE,12,3.0,6.0,80,0.00,,,0.00,193,Wunderground v.1.15,2013-07-03 13:48:00,
2013-07-03 08:53:00,62.4,56.5,30.08,NNE,13,2.0,3.0,81,0.00,,,0.00,232,Wunderground v.1.15,2013-07-03 13:53:00,
2013-07-03 08:59:00,62.5,56.6,30.08,NNE,12,2.0,4.0,81,0.00,,,0.00,229,Wunderground v.1.15,2013-07-03 13:59:00,
2013-07-03 09:04:00,62.6,56.3,30.08,NNE,17,4.0,4.0,80,0.00,,,0.00,234,Wunderground v.1.15,2013-07-03 14:04:00,
2013-07-03 09:07:00,62.7,56.4,30.08,NNE,17,0.0,4.0,80,0.00,,,0.00,237,Wunderground v.1.15,2013-07-03 14:07:00,
2013-07-03 09:09:00,62.8,56.5,30.08,NNE,17,2.0,4.0,80,0.00,,,0.00,244,Wunderground v.1.15,2013-07-03 14:09:00,
2013-07-03 09:14:00,62.9,56.6,30.08,NNE,27,3.0,4.0,80,0.00,,,0.00,265,Wunderground v.1.15,2013-07-03 14:14:00,
2013-07-03 09:18:00,63.0,57.1,30.08,NE,50,2.0,6.0,81,0.00,,,0.00,281,Wunderground v.1.15,2013-07-03 14:18:00,
2013-07-03 09:24:00,63.4,57.5,30.07,NE,50,1.0,3.0,81,0.00,,,0.00,329,Wunderground v.1.15,2013-07-03 14:24:00,
2013-07-03 09:29:00,63.8,57.9,30.07,North,5,0.0,5.0,81,0.00,,,0.00,381,Wunderground v.1.15,2013-07-03 14:29:00,
2013-07-03 09:30:00,63.8,57.9,30.07,North,5,0.0,1.0,81,0.00,,,0.00,381,Wunderground v.1.15,2013-07-03 14:30:00,
2013-07-03 09:35:00,64.1,57.5,30.07,North,9,2.0,3.0,79,0.00,,,0.00,388,Wunderground v.1.15,2013-07-03 14:35:00,
2013-07-03 09:38:00,64.1,57.5,30.07,NNE,20,2.0,4.0,79,0.00,,,0.00,352,Wunderground v.1.15,2013-07-03 14:38:00,
2013-07-03 09:41:00,64.2,57.5,30.07,NNW,335,3.0,3.0,79,0.00,,,0.00,330,Wunderground v.1.15,2013-07-03 14:41:00,
2013-07-03 09:46:00,64.4,57.7,30.07,North,5,0.0,5.0,79,0.00,,,0.00,329,Wunderground v.1.15,2013-07-03 14:46:00,
2013-07-03 09:51:00,64.5,57.8,30.07,NNW,346,4.0,4.0,79,0.00,,,0.00,327,Wunderground v.1.15,2013-07-03 14:51:00,
2013-07-03 09:56:00,64.7,58.4,30.07,NNW,335,1.0,4.0,80,0.00,,,0.00,350,Wunderground v.1.15,2013-07-03 14:56:00,
2013-07-03 09:58:00,64.9,58.6,30.07,NNW,337,2.0,4.0,80,0.00,,,0.00,359,Wunderground v.1.15,2013-07-03 14:58:00,
2013-07-03 10:03:00,65.0,58.3,30.08,ENE,70,2.0,5.0,79,0.00,,,0.00,338,Wunderground v.1.15,2013-07-03 15:03:00,
2013-07-03 10:05:00,65.0,58.3,30.07,ENE,70,2.0,5.0,79,0.00,,,0.00,359,Wunderground v.1.15,2013-07-03 15:05:00,
2013-07-03 10:10:00,65.2,58.5,30.07,North,355,2.0,2.0,79,0.00,,,0.00,336,Wunderground v.1.15,2013-07-03 15:10:00,
2013-07-03 10:15:00,65.1,58.1,30.07,North,360,4.0,7.0,78,0.00,,,0.00,339,Wunderground v.1.15,2013-07-03 15:15:00,
2013-07-03 10:20:00,65.0,58.3,30.07,NW,326,1.0,6.0,79,0.00,,,0.00,318,Wunderground v.1.15,2013-07-03 15:20:00,
2013-07-03 10:25:00,65.1,58.1,30.07,NNE,19,0.0,6.0,78,0.00,,,0.00,276,Wunderground v.1.15,2013-07-03 15:25:00,
2013-07-03 10:29:00,65.1,58.4,30.07,NNE,19,3.0,6.0,79,0.00,,,0.00,237,Wunderground v.1.15,2013-07-03 15:29:00,
2013-07-03 10:34:00,64.9,57.9,30.08,NNW,348,3.0,5.0,78,0.00,,,0.00,230,Wunderground v.1.15,2013-07-03 15:34:00,
2013-07-03 10:40:00,64.9,58.2,30.07,NNE,12,3.0,3.0,79,0.00,,,0.00,272,Wunderground v.1.15,2013-07-03 15:40:00,
2013-07-03 10:45:00,64.9,58.2,30.07,North,5,3.0,6.0,79,0.00,,,0.00,287,Wunderground v.1.15,2013-07-03 15:45:00,
2013-07-03 10:50:00,64.9,58.2,30.07,NNE,22,1.0,3.0,79,0.00,,,0.00,257,Wunderground v.1.15,2013-07-03 15:50:00,
2013-07-03 10:52:00,64.9,58.2,30.07,NNE,22,2.0,3.0,79,0.00,,,0.00,260,Wunderground v.1.15,2013-07-03 15:52:00,
2013-07-03 10:53:00,64.9,58.2,30.07,NNE,22,0.0,4.0,79,0.00,,,0.00,265,Wunderground v.1.15,2013-07-03 15:53:00,
2013-07-03 10:59:00,65.0,58.3,30.07,NE,43,3.0,4.0,79,0.00,,,0.00,271,Wunderground v.1.15,2013-07-03 15:59:00,
2013-07-03 11:04:00,65.0,58.3,30.07,NE,44,0.0,3.0,79,0.00,,,0.00,279,Wunderground v.1.15,2013-07-03 16:04:00,
2013-07-03 11:09:00,65.2,58.5,30.07,NE,53,4.0,6.0,79,0.00,,,0.00,318,Wunderground v.1.15,2013-07-03 16:09:00,
2013-07-03 11:14:00,65.4,59.1,30.07,NE,53,0.0,3.0,80,0.00,,,0.00,362,Wunderground v.1.15,2013-07-03 16:14:00,
2013-07-03 11:19:00,65.8,59.5,30.07,NNE,19,2.0,4.0,80,0.00,,,0.00,461,Wunderground v.1.15,2013-07-03 16:19:00,
2013-07-03 11:24:00,66.1,59.4,30.07,NNE,16,2.0,3.0,79,0.00,,,0.00,492,Wunderground v.1.15,2013-07-03 16:24:00,
2013-07-03 11:29:00,66.5,59.8,30.07,NNE,16,1.0,3.0,79,0.00,,,0.00,541,Wunderground v.1.15,2013-07-03 16:29:00,
2013-07-03 11:35:00,66.9,59.8,30.06,NNE,16,0.0,4.0,78,0.00,,,0.00,499,Wunderground v.1.15,2013-07-03 16:35:00,
2013-07-03 11:40:00,67.2,59.4,30.06,North,360,0.0,1.0,76,0.00,,,0.00,424,Wunderground v.1.15,2013-07-03 16:40:00,
2013-07-03 11:45:00,67.6,60.1,30.06,ENE,59,3.0,4.0,77,0.00,,,0.00,343,Wunderground v.1.15,2013-07-03 16:45:00,
2013-07-03 11:50:00,67.5,59.3,30.06,NE,39,0.0,2.0,75,0.00,,,0.00,274,Wunderground v.1.15,2013-07-03 16:50:00,
2013-07-03 11:55:00,67.1,58.9,30.06,NNE,32,3.0,5.0,75,0.00,,,0.00,206,Wunderground v.1.15,2013-07-03 16:55:00,
2013-07-03 12:01:00,66.8,59.0,30.06,ENE,72,7.0,7.0,76,0.00,,,0.00,236,Wunderground v.1.15,2013-07-03 17:01:00,
2013-07-03 12:06:00,66.6,59.2,30.07,ENE,59,5.0,7.0,77,0.00,,,0.00,255,Wunderground v.1.15,2013-07-03 17:06:00,
2013-07-03 12:11:00,66.5,59.1,30.07,ENE,59,0.0,4.0,77,0.00,,,0.00,241,Wunderground v.1.15,2013-07-03 17:11:00,
2013-07-03 12:16:00,66.6,59.2,30.06,NNE,28,1.0,4.0,77,0.00,,,0.00,272,Wunderground v.1.15,2013-07-03 17:16:00,
2013-07-03 12:21:00,66.5,59.1,30.06,ENE,57,5.0,5.0,77,0.00,,,0.00,332,Wunderground v.1.15,2013-07-03 17:21:00,
2013-07-03 12:27:00,66.8,59.7,30.06,ENE,71,1.0,5.0,78,0.00,,,0.00,490,Wunderground v.1.15,2013-07-03 17:27:00,
2013-07-03 12:33:00,67.2,59.4,30.06,NW,319,2.0,4.0,76,0.00,,,0.00,608,Wunderground v.1.15,2013-07-03 17:33:00,
2013-07-03 12:38:00,67.8,60.3,30.06,NE,36,1.0,4.0,77,0.00,,,0.00,643,Wunderground v.1.15,2013-07-03 17:38:00,
2013-07-03 12:43:00,68.3,60.8,30.05,North,360,0.0,6.0,77,0.00,,,0.00,680,Wunderground v.1.15,2013-07-03 17:43:00,
2013-07-03 12:48:00,68.8,60.6,30.05,NNW,342,0.0,6.0,75,0.00,,,0.00,608,Wunderground v.1.15,2013-07-03 17:48:00,
2013-07-03 12:53:00,69.0,60.7,30.06,NNE,15,6.0,8.0,75,0.00,,,0.00,459,Wunderground v.1.15,2013-07-03 17:53:00,
2013-07-03 12:58:00,68.5,59.9,30.05,North,5,1.0,8.0,74,0.00,,,0.00,420,Wunderground v.1.15,2013-07-03 17:58:00,
2013-07-03 13:03:00,68.3,60.4,30.05,North,5,3.0,5.0,76,0.00,,,0.00,399,Wunderground v.1.15,2013-07-03 18:03:00,
2013-07-03 13:08:00,68.1,59.9,30.05,NNE,22,3.0,6.0,75,0.00,,,0.00,383,Wunderground v.1.15,2013-07-03 18:08:00,
2013-07-03 13:14:00,67.9,59.7,30.05,NNE,13,1.0,4.0,75,0.00,,,0.00,417,Wunderground v.1.15,2013-07-03 18:14:00,
2013-07-03 13:19:00,67.9,60.1,30.05,NW,313,1.0,5.0,76,0.00,,,0.00,476,Wunderground v.1.15,2013-07-03 18:19:00,
2013-07-03 13:24:00,68.3,60.1,30.05,NNW,329,4.0,5.0,75,0.00,,,0.00,482,Wunderground v.1.15,2013-07-03 18:24:00,
2013-07-03 13:29:00,68.7,60.1,30.05,NNW,329,0.0,5.0,74,0.00,,,0.00,475,Wunderground v.1.15,2013-07-03 18:29:00,
2013-07-03 13:35:00,69.2,60.9,30.05,NE,53,2.0,4.0,75,0.00,,,0.00,396,Wunderground v.1.15,2013-07-03 18:35:00,
2013-07-03 13:40:00,69.2,60.9,30.05,NNE,30,3.0,3.0,75,0.00,,,0.00,315,Wunderground v.1.15,2013-07-03 18:40:00,
2013-07-03 13:46:00,69.0,60.7,30.04,NE,53,0.0,5.0,75,0.00,,,0.00,330,Wunderground v.1.15,2013-07-03 18:46:00,
2013-07-03 13:51:00,68.9,60.6,30.04,NNE,13,2.0,3.0,75,0.00,,,0.00,438,Wunderground v.1.15,2013-07-03 18:51:00,
2013-07-03 13:57:00,68.9,61.0,30.04,NNE,18,1.0,6.0,76,0.00,,,0.00,570,Wunderground v.1.15,2013-07-03 18:57:00,
2013-07-03 14:02:00,69.3,61.4,30.04,NNE,18,2.0,3.0,76,0.00,,,0.00,847,Wunderground v.1.15,2013-07-03 19:02:00,
2013-07-03 14:07:00,70.0,61.7,30.04,NNE,25,7.0,7.0,75,0.00,,,0.00,865,Wunderground v.1.15,2013-07-03 19:07:00,
2013-07-03 14:12:00,70.2,61.1,30.04,North,5,2.0,5.0,73,0.00,,,0.00,496,Wunderground v.1.15,2013-07-03 19:12:00,
2013-07-03 14:18:00,70.2,60.7,30.04,NNE,26,0.0,5.0,72,0.00,,,0.00,519,Wunderground v.1.15,2013-07-03 19:18:00,
2013-07-03 14:23:00,70.4,60.9,30.03,NNW,336,0.0,4.0,72,0.00,,,0.00,438,Wunderground v.1.15,2013-07-03 19:23:00,
2013-07-03 14:28:00,70.5,61.4,30.03,NE,45,2.0,5.0,73,0.00,,,0.00,513,Wunderground v.1.15,2013-07-03 19:28:00,
2013-07-03 14:33:00,70.5,61.0,30.03,NNE,18,4.0,4.0,72,0.00,,,0.00,659,Wunderground v.1.15,2013-07-03 19:33:00,
2013-07-03 14:39:00,70.5,61.0,30.03,NE,40,0.0,4.0,72,0.00,,,0.00,633,Wunderground v.1.15,2013-07-03 19:39:00,
2013-07-03 14:44:00,70.7,62.0,30.03,ENE,61,0.0,4.0,74,0.00,,,0.00,689,Wunderground v.1.15,2013-07-03 19:44:00,
2013-07-03 14:49:00,70.9,61.4,30.03,NNE,12,0.0,4.0,72,0.00,,,0.00,647,Wunderground v.1.15,2013-07-03 19:49:00,
2013-07-03 14:54:00,71.1,61.6,30.03,NE,44,2.0,4.0,72,0.00,,,0.00,1081,Wunderground v.1.15,2013-07-03 19:54:00,
2013-07-03 14:59:00,71.3,62.2,30.03,NNE,17,0.0,4.0,73,0.00,,,0.00,633,Wunderground v.1.15,2013-07-03 19:59:00,
2013-07-03 15:04:00,71.3,61.8,30.03,NE,46,4.0,5.0,72,0.00,,,0.00,445,Wunderground v.1.15,2013-07-03 20:04:00,
2013-07-03 15:10:00,70.8,61.3,30.03,NE,37,1.0,2.0,72,0.00,,,0.00,471,Wunderground v.1.15,2013-07-03 20:10:00,
2013-07-03 15:15:00,70.9,61.0,30.03,NE,37,0.0,3.0,71,0.00,,,0.00,492,Wunderground v.1.15,2013-07-03 20:15:00,
2013-07-03 15:21:00,71.4,61.5,30.03,NE,36,0.0,1.0,71,0.00,,,0.00,422,Wunderground v.1.15,2013-07-03 20:21:00,
2013-07-03 15:26:00,71.5,62.0,30.03,NE,36,1.0,4.0,72,0.00,,,0.00,378,Wunderground v.1.15,2013-07-03 20:26:00,
2013-07-03 15:31:00,71.5,62.0,30.03,North,355,1.0,6.0,72,0.00,,,0.00,392,Wunderground v.1.15,2013-07-03 20:31:00,
2013-07-03 15:36:00,71.5,62.0,30.03,NE,36,4.0,6.0,72,0.00,,,0.00,315,Wunderground v.1.15,2013-07-03 20:36:00,
2013-07-03 15:41:00,71.1,62.0,30.03,NE,46,1.0,5.0,73,0.00,,,0.00,306,Wunderground v.1.15,2013-07-03 20:41:00,
2013-07-03 15:46:00,70.9,61.4,30.03,NNE,26,3.0,5.0,72,0.00,,,0.00,237,Wunderground v.1.15,2013-07-03 20:46:00,
2013-07-03 15:52:00,70.6,61.9,30.03,North,5,1.0,1.0,74,0.00,,,0.00,281,Wunderground v.1.15,2013-07-03 20:52:00,
2013-07-03 15:57:00,70.6,61.9,30.03,NE,49,1.0,4.0,74,0.00,,,0.00,387,Wunderground v.1.15,2013-07-03 20:57:00,
2013-07-03 16:02:00,70.5,61.4,30.03,NE,49,0.0,2.0,73,0.00,,,0.00,313,Wunderground v.1.15,2013-07-03 21:02:00,
2013-07-03 16:07:00,70.7,61.6,30.03,NE,44,1.0,3.0,73,0.00,,,0.00,216,Wunderground v.1.15,2013-07-03 21:07:00,
2013-07-03 16:12:00,70.6,61.9,30.03,NE,44,0.0,1.0,74,0.00,,,0.00,105,Wunderground v.1.15,2013-07-03 21:12:00,
2013-07-03 16:17:00,70.5,61.0,30.03,NE,44,0.0,2.0,72,0.00,,,0.00,56,Wunderground v.1.15,2013-07-03 21:17:00,
2013-07-03 16:22:00,70.4,61.3,30.03,NE,44,0.0,1.0,73,0.00,,,0.00,54,Wunderground v.1.15,2013-07-03 21:22:00,
2013-07-03 16:27:00,70.2,61.5,30.03,NNE,28,2.0,2.0,74,0.00,,,0.00,62,Wunderground v.1.15,2013-07-03 21:27:00,
2013-07-03 16:32:00,69.9,61.6,30.03,NNE,28,0.0,3.0,75,0.00,,,0.00,56,Wunderground v.1.15,2013-07-03 21:32:00,
2013-07-03 16:38:00,69.6,61.3,30.03,NNE,28,0.0,3.0,75,0.00,,,0.00,65,Wunderground v.1.15,2013-07-03 21:38:00,
2013-07-03 16:43:00,69.4,61.9,30.02,NNE,28,1.0,2.0,77,0.00,,,0.00,86,Wunderground v.1.15,2013-07-03 21:43:00,
2013-07-03 16:48:00,69.3,61.8,30.02,NNE,28,0.0,3.0,77,0.00,,,0.00,76,Wunderground v.1.15,2013-07-03 21:48:00,
2013-07-03 16:53:00,69.2,61.7,30.01,NNE,28,1.0,2.0,77,0.00,,,0.00,81,Wunderground v.1.15,2013-07-03 21:53:00,
2013-07-03 16:58:00,69.1,61.9,30.01,NNE,14,0.0,4.0,78,0.00,,,0.00,69,Wunderground v.1.15,2013-07-03 21:58:00,
2013-07-03 17:03:00,69.0,61.9,30.01,NNE,14,1.0,4.0,78,0.00,,,0.00,76,Wunderground v.1.15,2013-07-03 22:03:00,
2013-07-03 17:08:00,68.8,61.7,30.01,NNE,13,2.0,4.0,78,0.00,,,0.00,65,Wunderground v.1.15,2013-07-03 22:08:00,
2013-07-03 17:13:00,68.7,61.6,30.01,NNE,13,0.0,3.0,78,0.00,,,0.00,44,Wunderground v.1.15,2013-07-03 22:13:00,
2013-07-03 17:18:00,68.6,61.5,30.01,NE,45,0.0,3.0,78,0.00,,,0.00,33,Wunderground v.1.15,2013-07-03 22:18:00,
2013-07-03 17:24:00,68.5,61.4,30.02,NE,45,0.0,3.0,78,0.00,,,0.00,33,Wunderground v.1.15,2013-07-03 22:24:00,
2013-07-03 17:29:00,68.5,61.7,30.01,NE,45,0.0,3.0,79,0.00,,,0.00,33,Wunderground v.1.15,2013-07-03 22:29:00,
2013-07-03 17:34:00,68.4,61.3,30.01,NE,36,0.0,3.0,78,0.00,,,0.00,37,Wunderground v.1.15,2013-07-03 22:34:00,
2013-07-03 17:39:00,68.4,61.3,30.01,NE,36,0.0,3.0,78,0.00,,,0.00,42,Wunderground v.1.15,2013-07-03 22:39:00,
2013-07-03 17:44:00,68.5,61.4,30.01,NNE,32,1.0,4.0,78,0.00,,,0.00,35,Wunderground v.1.15,2013-07-03 22:44:00,
2013-07-03 17:50:00,68.5,61.4,30.01,NNE,32,0.0,1.0,78,0.00,,,0.00,28,Wunderground v.1.15,2013-07-03 22:50:00,
2013-07-03 17:55:00,68.6,61.5,30.01,NNE,32,1.0,1.0,78,0.00,,,0.00,32,Wunderground v.1.15,2013-07-03 22:55:00,
2013-07-03 18:00:00,68.6,61.5,30.01,NNE,32,0.0,0.0,78,0.00,,,0.00,42,Wunderground v.1.15,2013-07-03 23:00:00,
2013-07-03 18:05:00,68.6,61.8,30.01,NNE,32,0.0,2.0,79,0.00,,,0.00,37,Wunderground v.1.15,2013-07-03 23:05:00,
2013-07-03 18:10:00,68.5,61.7,30.01,NNE,32,0.0,0.0,79,0.00,,,0.00,37,Wunderground v.1.15,2013-07-03 23:10:00,
2013-07-03 18:15:00,68.5,61.7,30.01,NNE,32,0.0,2.0,79,0.00,,,0.00,35,Wunderground v.1.15,2013-07-03 23:15:00,
2013-07-03 18:20:00,68.4,61.6,30.01,NNE,28,0.0,0.0,79,0.00,,,0.00,39,Wunderground v.1.15,2013-07-03 23:20:00,
2013-07-03 18:25:00,68.4,61.6,30.01,NNE,28,0.0,0.0,79,0.00,,,0.00,40,Wunderground v.1.15,2013-07-03 23:25:00,
2013-07-03 18:30:00,68.3,62.2,30.01,NNE,28,0.0,0.0,81,0.00,,,0.00,40,Wunderground v.1.15,2013-07-03 23:30:00,
2013-07-03 18:36:00,68.2,62.1,30.01,NNE,28,0.0,0.0,81,0.00,,,0.00,33,Wunderground v.1.15,2013-07-03 23:36:00,
2013-07-03 18:41:00,68.1,62.0,30.01,NNE,28,0.0,0.0,81,0.00,,,0.00,33,Wunderground v.1.15,2013-07-03 23:41:00,
2013-07-03 18:46:00,68.1,62.0,30.01,NNE,28,0.0,0.0,81,0.00,,,0.00,35,Wunderground v.1.15,2013-07-03 23:46:00,
2013-07-03 18:51:00,68.0,61.9,30.01,NNE,27,0.0,0.0,81,0.00,,,0.00,32,Wunderground v.1.15,2013-07-03 23:51:00,
2013-07-03 18:57:00,67.9,61.9,30.01,NNE,27,0.0,0.0,81,0.00,,,0.00,32,Wunderground v.1.15,2013-07-03 23:57:00,
2013-07-03 19:02:00,67.8,61.8,30.01,NNE,27,0.0,0.0,81,0.00,,,0.00,33,Wunderground v.1.15,2013-07-04 00:02:00,
2013-07-03 19:07:00,67.8,62.1,30.01,NNE,27,0.0,0.0,82,0.00,,,0.00,33,Wunderground v.1.15,2013-07-04 00:07:00,
2013-07-03 19:13:00,67.7,62.0,30.01,NNE,27,0.0,0.0,82,0.00,,,0.00,28,Wunderground v.1.15,2013-07-04 00:13:00,
2013-07-03 19:18:00,67.8,62.4,30.01,NNE,27,0.0,0.0,83,0.00,,,0.00,25,Wunderground v.1.15,2013-07-04 00:18:00,
2013-07-03 19:23:00,67.7,62.0,30.01,NNE,27,0.0,0.0,82,0.00,,,0.00,25,Wunderground v.1.15,2013-07-04 00:23:00,
2013-07-03 19:28:00,67.7,62.3,30.01,NNE,27,0.0,0.0,83,0.00,,,0.00,19,Wunderground v.1.15,2013-07-04 00:28:00,
2013-07-03 19:34:00,67.7,62.3,30.01,NNE,27,0.0,0.0,83,0.00,,,0.00,16,Wunderground v.1.15,2013-07-04 00:34:00,
2013-07-03 19:39:00,67.7,62.0,30.01,NNE,27,0.0,0.0,82,0.00,,,0.00,12,Wunderground v.1.15,2013-07-04 00:39:00,
2013-07-03 19:44:00,67.8,62.1,30.01,NNE,27,0.0,0.0,82,0.00,,,0.00,12,Wunderground v.1.15,2013-07-04 00:44:00,
2013-07-03 19:49:00,67.7,62.0,30.01,NNE,27,0.0,0.0,82,0.00,,,0.00,11,Wunderground v.1.15,2013-07-04 00:49:00,
2013-07-03 19:55:00,67.7,62.0,30.01,NNE,27,0.0,0.0,82,0.00,,,0.00,9,Wunderground v.1.15,2013-07-04 00:55:00,
2013-07-03 20:00:00,67.7,62.3,30.02,NNE,27,0.0,0.0,83,0.00,,,0.00,7,Wunderground v.1.15,2013-07-04 01:00:00,
2013-07-03 20:05:00,67.6,62.6,30.01,NNE,26,0.0,0.0,84,0.00,,,0.00,9,Wunderground v.1.15,2013-07-04 01:05:00,
2013-07-03 20:41:00,66.6,62.6,30.01,NNE,27,0.0,0.0,87,0.00,,,0.00,0,Wunderground v.1.15,2013-07-04 01:41:00,
2013-07-03 20:46:00,66.4,62.4,30.01,NNE,27,0.0,0.0,87,0.00,,,0.00,0,Wunderground v.1.15,2013-07-04 01:46:00,
2013-07-03 20:51:00,66.2,62.2,30.01,NNE,27,0.0,0.0,87,0.00,,,0.00,0,Wunderground v.1.15,2013-07-04 01:51:00,
2013-07-03 20:56:00,66.3,63.0,30.01,NNE,27,0.0,0.0,89,0.00,,,0.00,0,Wunderground v.1.15,2013-07-04 01:56:00,
2013-07-03 21:01:00,66.3,63.0,30.01,NNE,27,0.0,0.0,89,0.00,,,0.00,0,Wunderground v.1.15,2013-07-04 02:01:00,
2013-07-03 21:06:00,66.1,62.8,30.02,NNE,27,0.0,0.0,89,0.00,,,0.00,0,Wunderground v.1.15,2013-07-04 02:06:00,
2013-07-03 21:12:00,65.9,62.6,30.02,NNE,27,0.0,0.0,89,0.00,,,0.00,0,Wunderground v.1.15,2013-07-04 02:12:00,
2013-07-03 21:17:00,65.9,62.6,30.02,NNE,27,0.0,0.0,89,0.00,,,0.00,0,Wunderground v.1.15,2013-07-04 02:17:00,
2013-07-03 21:23:00,65.8,62.5,30.02,NNE,27,0.0,0.0,89,0.00,,,0.00,0,Wunderground v.1.15,2013-07-04 02:23:00,
2013-07-03 21:28:00,65.7,62.0,30.02,NNE,27,0.0,0.0,88,0.00,,,0.00,0,Wunderground v.1.15,2013-07-04 02:28:00,
2013-07-03 21:34:00,65.7,62.0,30.02,NNE,27,0.0,0.0,88,0.00,,,0.00,0,Wunderground v.1.15,2013-07-04 02:34:00,
2013-07-03 21:39:00,65.7,62.0,30.02,NNE,27,0.0,0.0,88,0.00,,,0.00,0,Wunderground v.1.15,2013-07-04 02:39:00,
2013-07-03 21:44:00,65.8,62.1,30.02,NNE,27,0.0,0.0,88,0.00,,,0.00,0,Wunderground v.1.15,2013-07-04 02:44:00,
2013-07-03 21:49:00,65.9,62.6,30.02,NNE,27,0.0,0.0,89,0.00,,,0.00,0,Wunderground v.1.15,2013-07-04 02:49:00,
2013-07-03 21:54:00,66.2,62.5,30.02,NNE,27,0.0,0.0,88,0.00,,,0.00,0,Wunderground v.1.15,2013-07-04 02:54:00,
2013-07-03 21:59:00,66.3,62.6,30.02,NNE,27,0.0,0.0,88,0.00,,,0.00,0,Wunderground v.1.15,2013-07-04 02:59:00,
2013-07-03 22:05:00,66.3,63.0,30.02,NNE,27,0.0,0.0,89,0.00,,,0.00,0,Wunderground v.1.15,2013-07-04 03:05:00,
2013-07-03 22:10:00,66.1,62.8,30.02,NNE,27,0.0,0.0,89,0.00,,,0.00,0,Wunderground v.1.15,2013-07-04 03:10:00,
2013-07-03 22:15:00,66.1,62.8,30.02,NNE,27,0.0,0.0,89,0.00,,,0.00,0,Wunderground v.1.15,2013-07-04 03:15:00,
2013-07-03 22:20:00,66.0,62.7,30.03,NNE,27,0.0,0.0,89,0.00,,,0.00,0,Wunderground v.1.15,2013-07-04 03:20:00,
2013-07-03 22:25:00,65.9,62.6,30.03,NNE,27,0.0,0.0,89,0.00,,,0.00,0,Wunderground v.1.15,2013-07-04 03:25:00,
2013-07-03 22:31:00,65.7,62.4,30.03,NNE,27,0.0,0.0,89,0.00,,,0.00,0,Wunderground v.1.15,2013-07-04 03:31:00,
2013-07-03 22:37:00,65.4,62.4,30.03,NNE,27,0.0,0.0,90,0.00,,,0.00,0,Wunderground v.1.15,2013-07-04 03:37:00,
2013-07-03 22:42:00,65.2,61.9,30.03,NNE,27,0.0,0.0,89,0.00,,,0.00,0,Wunderground v.1.15,2013-07-04 03:42:00,
2013-07-03 22:47:00,65.0,61.7,30.03,NNE,27,0.0,0.0,89,0.00,,,0.00,0,Wunderground v.1.15,2013-07-04 03:47:00,
2013-07-03 22:52:00,64.8,61.8,30.03,NNE,27,0.0,0.0,90,0.00,,,0.00,0,Wunderground v.1.15,2013-07-04 03:52:00,
2013-07-03 22:57:00,64.6,61.6,30.03,NNE,27,0.0,0.0,90,0.00,,,0.00,0,Wunderground v.1.15,2013-07-04 03:57:00,
2013-07-03 23:01:00,64.5,61.5,30.03,NNE,27,0.0,0.0,90,0.00,,,0.00,0,Wunderground v.1.15,2013-07-04 04:01:00,
2013-07-03 23:02:00,64.4,61.4,30.03,NNE,27,0.0,0.0,90,0.00,,,0.00,0,Wunderground v.1.15,2013-07-04 04:02:00,
2013-07-03 23:07:00,64.1,61.4,30.03,NNE,27,0.0,0.0,91,0.00,,,0.00,0,Wunderground v.1.15,2013-07-04 04:07:00,
2013-07-03 23:12:00,64.0,61.3,30.03,NNE,27,0.0,0.0,91,0.00,,,0.00,0,Wunderground v.1.15,2013-07-04 04:12:00,
2013-07-03 23:17:00,63.8,61.1,30.03,NNE,27,0.0,0.0,91,0.00,,,0.00,0,Wunderground v.1.15,2013-07-04 04:17:00,
2013-07-03 23:22:00,63.6,60.9,30.03,NNE,27,0.0,0.0,91,0.00,,,0.00,0,Wunderground v.1.15,2013-07-04 04:22:00,
2013-07-03 23:27:00,63.4,60.7,30.02,NNE,27,0.0,0.0,91,0.00,,,0.00,0,Wunderground v.1.15,2013-07-04 04:27:00,
2013-07-03 23:32:00,63.2,60.5,30.03,NNE,27,0.0,0.0,91,0.00,,,0.00,0,Wunderground v.1.15,2013-07-04 04:32:00,
2013-07-03 23:37:00,63.0,60.3,30.02,NNE,27,0.0,0.0,91,0.00,,,0.00,0,Wunderground v.1.15,2013-07-04 04:37:00,
2013-07-03 23:42:00,62.8,60.1,30.03,NNE,27,0.0,0.0,91,0.00,,,0.00,0,Wunderground v.1.15,2013-07-04 04:42:00,
2013-07-03 23:47:00,62.6,59.9,30.03,NNE,27,0.0,0.0,91,0.00,,,0.00,0,Wunderground v.1.15,2013-07-04 04:47:00,
2013-07-03 23:52:00,62.4,60.0,30.03,NNE,27,0.0,0.0,92,0.00,,,0.00,0,Wunderground v.1.15,2013-07-04 04:52:00,
2013-07-03 23:57:00,62.2,59.8,30.03,NNE,27,0.0,0.0,92,0.00,,,0.00,0,Wunderground v.1.15,2013-07-04 04:57:00,